WB5MTX Weather Reports


time (UTC)temp
F
wind
direction
speed
knots
gust
knots
rain 1hr
in
rain 24hr
in
rain mn
in
humidity
%
barometer
mb
20211017161714 63 13 0.0 0.0 0.00 0.00 0.00 52 1026.8
20211017150712 55 12 0.0 0.0 0.00 0.00 0.00 75 1027.2
20211017145711 54 12 0.0 0.0 0.00 0.00 0.00 76 1027.1
20211017144711 53 12 0.0 0.0 0.00 0.00 0.00 78 1027.0
20211017143710 51 12 0.0 0.0 0.00 0.00 0.00 80 1027.0
20211017142710 50 12 0.0 0.0 0.00 0.00 0.00 81 1026.9
20211017140710 48 12 0.0 0.0 0.00 0.00 0.00 84 1026.6
20211017134709 47 12 0.0 0.0 0.00 0.00 0.00 83 1026.3
20211017131708 46 12 0.0 0.0 0.00 0.00 0.00 82 1025.8
20211017125707 47 12 0.0 0.0 0.00 0.00 0.00 82 1025.6
20211017123707 47 12 0.0 0.0 0.00 0.00 0.00 82 1025.9
20211017121706 47 12 0.0 0.0 0.00 0.00 0.00 82 1025.7
20211017115705 47 12 0.0 0.0 0.00 0.00 0.00 82 1025.6
20211017113705 48 12 0.0 0.0 0.00 0.00 0.00 82 1025.6
20211017112704 48 12 0.0 0.0 0.00 0.00 0.00 82 1025.5
20211017100732 49 12 0.0 0.0 0.00 0.00 0.00 80 1025.3
20211017095732 49 12 0.0 0.0 0.00 0.00 0.00 80 1025.4
20211017094732 49 12 0.0 0.0 0.00 0.00 0.00 78 1025.5
20211017093731 49 12 0.0 0.0 0.00 0.00 0.00 78 1025.6
20211017090730 50 12 0.0 0.0 0.00 0.00 0.00 77 1025.5
20211017080728 50 12 0.0 0.0 0.00 0.00 0.00 73 1026.0
20211017064725 52 12 0.0 0.0 0.00 0.00 0.00 69 1026.1
20211017062725 52 12 0.0 0.0 0.00 0.00 0.00 68 1026.1
20211017061725 52 12 0.0 0.0 0.00 0.00 0.00 68 1026.0
20211017060724 53 12 0.0 0.0 0.00 0.00 0.00 67 1026.0
20211017055724 53 12 0.0 0.0 0.00 0.00 0.00 67 1026.0
20211017053724 54 12 0.0 0.0 0.00 0.00 0.00 67 1025.9
20211017050723 55 12 0.0 0.0 0.00 0.00 0.00 63 1025.9
20211017044725 56 12 0.0 0.0 0.00 0.00 0.00 62 1026.1
20211017041723 57 12 0.0 0.0 0.00 0.00 0.00 59 1026.0
20211017040724 58 12 0.0 0.0 0.00 0.00 0.00 57 1025.9
20211017034723 58 12 0.0 0.0 0.00 0.00 0.00 55 1025.8
20211017033723 59 12 0.0 0.0 0.00 0.00 0.00 55 1025.9
20211017032722 59 12 0.0 0.0 0.00 0.00 0.00 55 1025.8
20211017025721 59 12 0.0 0.0 0.00 0.00 0.00 54 1025.6
20211017024721 59 12 0.0 0.0 0.00 0.00 0.00 53 1025.3
20211017022721 60 12 0.0 0.0 0.00 0.00 0.00 54 1025.4
20211017013719 62 12 0.0 0.0 0.00 0.00 0.00 50 1025.3
20211017012719 63 12 0.0 0.0 0.00 0.00 0.00 48 1025.3
20211017001716 67 12 0.0 0.0 0.00 0.00 0.00 41 1024.7
20211016234716 69 12 0.0 0.0 0.00 0.00 0.00 41 1024.9
20211016233715 70 12 0.0 0.0 0.00 0.00 0.00 40 1024.9
20211016232715 70 12 0.0 0.0 0.00 0.00 0.00 37 1024.9
20211016231714 71 12 0.0 0.0 0.00 0.00 0.00 36 1024.9
20211016225714 71 12 0.0 0.0 0.00 0.00 0.00 35 1024.9
20211016223713 72 11 0.0 4.3 0.00 0.00 0.00 34 1024.8
20211016222712 72 7 0.0 4.3 0.00 0.00 0.00 34 1024.8
20211016221712 72 12 0.0 1.7 0.00 0.00 0.00 34 1024.9
20211016213712 73 323 0.0 5.2 0.00 0.00 0.00 31 1025.2
20211016212710 73 323 0.0 1.7 0.00 0.00 0.00 32 1025.2
20211016210710 74 265 0.0 4.3 0.00 0.00 0.00 31 1025.3
20211016201709 75 331 0.0 4.3 0.00 0.00 0.00 32 1026.0
20211016194708 74 331 0.0 9.6 0.00 0.00 0.00 33 1026.2
20211016191707 75 323 0.0 5.2 0.00 0.00 0.00 33 1026.8
20211016184706 74 340 0.0 4.3 0.00 0.00 0.00 34 1027.4
20211016181705 73 317 0.0 7.0 0.00 0.00 0.00 36 1028.0
20211016180734 72 21 0.0 4.3 0.00 0.00 0.00 37 1028.2
20211016173733 70 343 0.0 4.3 0.00 0.00 0.00 39 1028.8
20211016172734 68 357 0.0 7.0 0.00 0.00 0.00 40 1028.7